Radiation Dose at Monitoring Post of Fukushima Daini Nuclear Power Station
Date,Time,MP-1(microSv/h),MP-2(microSv/h),MP-3(microSv/h),MP-4(microSv/h),MP-5(microSv/h),MP-6(microSv/h),MP-7(microSv/h),Wind Direction,Wind Velocity(m/s),Rain
2022/06/08,00:00,0.144,0.133,0.207,0.203,0.209,0.113,0.074,north,5.3,No
2022/06/08,00:10,0.144,0.133,0.207,0.204,0.207,0.113,0.074,north-northwest,4.5,No
2022/06/08,00:20,0.143,0.132,0.206,0.202,0.209,0.114,0.073,north-northwest,4.5,No
2022/06/08,00:30,0.144,0.134,0.206,0.203,0.209,0.113,0.074,north-northwest,4.3,No
2022/06/08,00:40,0.144,0.133,0.208,0.203,0.208,0.114,0.074,north-northwest,4.0,Yes
2022/06/08,00:50,0.144,0.134,0.207,0.202,0.209,0.114,0.074,north-northwest,4.0,Yes
2022/06/08,01:00,0.144,0.133,0.207,0.205,0.209,0.113,0.072,northwest,4.1,No
2022/06/08,01:10,0.143,0.133,0.207,0.202,0.209,0.113,0.073,northwest,3.8,No
2022/06/08,01:20,0.144,0.133,0.207,0.203,0.207,0.113,0.074,north-northwest,4.7,No
2022/06/08,01:30,0.143,0.133,0.208,0.204,0.209,0.113,0.074,north-northwest,4.8,No
2022/06/08,01:40,0.143,0.134,0.207,0.203,0.208,0.114,0.074,north-northwest,4.7,No
2022/06/08,01:50,0.144,0.133,0.207,0.204,0.208,0.114,0.073,north-northwest,5.2,No
2022/06/08,02:00,0.143,0.133,0.207,0.202,0.209,0.114,0.074,north-northwest,5.1,No
2022/06/08,02:10,0.144,0.135,0.208,0.203,0.208,0.114,0.074,north-northwest,5.2,No
2022/06/08,02:20,0.143,0.133,0.208,0.204,0.210,0.114,0.073,north-northwest,5.4,No
2022/06/08,02:30,0.143,0.134,0.208,0.203,0.209,0.114,0.074,north-northwest,5.3,No
2022/06/08,02:40,0.144,0.134,0.208,0.203,0.210,0.115,0.075,northwest,5.4,No
2022/06/08,02:50,0.143,0.134,0.208,0.203,0.209,0.114,0.074,north-northwest,5.5,No
2022/06/08,03:00,0.145,0.134,0.207,0.203,0.209,0.114,0.074,north-northwest,5.2,No
2022/06/08,03:10,0.144,0.134,0.208,0.204,0.210,0.113,0.073,north-northwest,5.4,No
2022/06/08,03:20,0.144,0.134,0.208,0.203,0.208,0.114,0.074,northwest,4.9,No
2022/06/08,03:30,0.144,0.134,0.208,0.204,0.210,0.115,0.074,northwest,4.4,No
2022/06/08,03:40,0.145,0.134,0.209,0.203,0.208,0.114,0.073,northwest,4.8,No
2022/06/08,03:50,0.144,0.134,0.208,0.205,0.209,0.115,0.074,northwest,4.7,No
2022/06/08,04:00,0.143,0.134,0.207,0.203,0.208,0.115,0.074,northwest,4.1,No
2022/06/08,04:10,0.143,0.134,0.208,0.203,0.209,0.114,0.074,northwest,4.1,No
2022/06/08,04:20,0.144,0.134,0.208,0.205,0.210,0.114,0.074,northwest,4.3,No
2022/06/08,04:30,0.144,0.133,0.208,0.203,0.209,0.114,0.074,northwest,3.1,No
2022/06/08,04:40,0.144,0.133,0.208,0.204,0.211,0.114,0.074,north-northwest,2.0,No
2022/06/08,04:50,0.143,0.134,0.208,0.204,0.210,0.114,0.074,north-northwest,2.7,No
2022/06/08,05:00,0.144,0.134,0.209,0.204,0.211,0.114,0.074,northwest,2.3,No
2022/06/08,05:10,0.144,0.134,0.207,0.203,0.209,0.114,0.074,north-northwest,3.1,No
2022/06/08,05:20,0.145,0.133,0.208,0.203,0.210,0.115,0.074,north-northwest,4.1,No
2022/06/08,05:30,0.144,0.133,0.209,0.203,0.210,0.114,0.075,north-northwest,3.4,No
2022/06/08,05:40,0.145,0.134,0.208,0.204,0.209,0.115,0.074,north-northwest,3.7,No
2022/06/08,05:50,0.144,0.133,0.208,0.203,0.210,0.114,0.074,north-northwest,4.6,No
2022/06/08,06:00,0.143,0.133,0.208,0.204,0.210,0.114,0.075,north-northwest,3.4,No
2022/06/08,06:10,0.144,0.133,0.209,0.203,0.210,0.114,0.073,north-northwest,3.3,No
2022/06/08,06:20,0.144,0.134,0.209,0.204,0.208,0.114,0.074,north-northwest,3.9,No
2022/06/08,06:30,0.146,0.134,0.208,0.204,0.210,0.114,0.074,north-northwest,3.1,No
2022/06/08,06:40,0.144,0.134,0.209,0.204,0.208,0.115,0.074,north-northwest,2.8,No
2022/06/08,06:50,0.145,0.134,0.208,0.203,0.210,0.115,0.074,north-northwest,3.4,No
2022/06/08,07:00,0.143,0.133,0.209,0.204,0.208,0.114,0.074,north-northwest,3.8,No
2022/06/08,07:10,0.144,0.134,0.209,0.205,0.211,0.115,0.074,north-northwest,3.7,No
2022/06/08,07:20,0.145,0.134,0.208,0.202,0.209,0.115,0.074,north-northwest,3.9,No
2022/06/08,07:30,0.144,0.134,0.210,0.204,0.210,0.115,0.073,northwest,3.2,No
2022/06/08,07:40,0.145,0.134,0.208,0.203,0.210,0.114,0.074,northwest,3.0,No
2022/06/08,07:50,0.144,0.134,0.209,0.205,0.210,0.115,0.075,north-northwest,3.2,No
2022/06/08,08:00,0.144,0.134,0.209,0.204,0.209,0.115,0.075,north-northwest,3.6,No
2022/06/08,08:10,0.144,0.133,0.209,0.204,0.209,0.114,0.074,north-northwest,3.5,Yes
2022/06/08,08:20,0.144,0.134,0.210,0.205,0.210,0.115,0.075,north-northwest,3.5,No
2022/06/08,08:30,0.144,0.135,0.209,0.203,0.209,0.114,0.074,north-northwest,3.9,No
2022/06/08,08:40,0.144,0.133,0.209,0.204,0.210,0.115,0.074,north-northwest,3.3,No
2022/06/08,08:50,0.145,0.133,0.207,0.202,0.208,0.115,0.074,north-northwest,3.8,No
2022/06/08,09:00,0.144,0.134,0.209,0.205,0.210,0.116,0.074,north-northwest,2.9,No
2022/06/08,09:10,0.145,0.134,0.209,0.204,0.208,0.115,0.075,north-northwest,3.0,No
2022/06/08,09:20,0.145,0.134,0.210,0.204,0.211,0.115,0.074,north-northwest,3.2,No
2022/06/08,09:30,0.144,0.134,0.209,0.204,0.208,0.115,0.074,north,2.9,No
2022/06/08,09:40,0.145,0.134,0.208,0.205,0.210,0.115,0.074,north-northwest,2.6,No
2022/06/08,09:50,0.145,0.134,0.209,0.204,0.209,0.115,0.074,north-northwest,4.2,No
2022/06/08,10:00,0.145,0.134,0.208,0.204,0.210,0.115,0.073,north-northwest,3.7,Yes
2022/06/08,10:10,0.145,0.134,0.209,0.204,0.209,0.115,0.074,north-northwest,3.7,Yes
2022/06/08,10:20,0.145,0.134,0.207,0.205,0.210,0.116,0.074,north-northwest,3.0,No
2022/06/08,10:30,0.145,0.134,0.208,0.205,0.209,0.115,0.074,northwest,3.3,No
2022/06/08,10:40,0.145,0.133,0.209,0.205,0.210,0.115,0.074,north-northwest,3.1,No
2022/06/08,10:50,0.145,0.134,0.208,0.206,0.209,0.115,0.074,north-northwest,2.9,Yes
2022/06/08,11:00,0.145,0.134,0.210,0.203,0.210,0.115,0.074,north,3.1,Yes
2022/06/08,11:10,0.144,0.134,0.208,0.206,0.208,0.115,0.074,north,3.3,Yes
2022/06/08,11:20,0.144,0.134,0.210,0.203,0.211,0.115,0.075,north,3.4,No
2022/06/08,11:30,0.145,0.133,0.210,0.206,0.209,0.115,0.074,north,2.8,Yes
2022/06/08,11:40,0.144,0.134,0.209,0.204,0.210,0.116,0.074,north,3.7,No
2022/06/08,11:50,0.145,0.133,0.209,0.205,0.209,0.115,0.073,north,3.1,No
2022/06/08,12:00,0.145,0.134,0.209,0.204,0.211,0.115,0.073,north,2.8,Yes
2022/06/08,12:10,0.145,0.133,0.209,0.206,0.208,0.115,0.074,north,3.6,No
2022/06/08,12:20,0.144,0.134,0.210,0.204,0.210,0.116,0.074,north,3.5,Yes
2022/06/08,12:30,0.144,0.134,0.211,0.205,0.209,0.115,0.073,north-northwest,3.5,No
2022/06/08,12:40,0.145,0.134,0.210,0.205,0.211,0.115,0.075,north,3.1,No
2022/06/08,12:50,0.145,0.134,0.210,0.205,0.209,0.115,0.074,north,4.2,No
2022/06/08,13:00,0.145,0.134,0.208,0.205,0.211,0.116,0.074,north,3.2,No
2022/06/08,13:10,0.146,0.134,0.211,0.205,0.209,0.115,0.074,north,3.4,No
2022/06/08,13:20,0.145,0.134,0.208,0.206,0.211,0.115,0.075,north,3.4,No
2022/06/08,13:30,0.145,0.135,0.210,0.204,0.211,0.115,0.075,north,3.1,No
2022/06/08,13:40,0.145,0.134,0.210,0.206,0.211,0.115,0.074,north-northwest,3.2,No
2022/06/08,13:50,0.145,0.134,0.209,0.205,0.209,0.115,0.074,north,2.3,No
2022/06/08,14:00,0.145,0.134,0.209,0.204,0.211,0.115,0.074,north-northwest,2.9,No
2022/06/08,14:10,0.145,0.134,0.209,0.206,0.209,0.116,0.074,north,2.6,No
2022/06/08,14:20,0.145,0.134,0.209,0.207,0.210,0.115,0.074,north,2.9,Yes
2022/06/08,14:30,0.145,0.134,0.208,0.204,0.209,0.115,0.075,north,3.5,Yes
2022/06/08,14:40,0.145,0.135,0.210,0.206,0.211,0.115,0.075,north-northwest,3.0,Yes
2022/06/08,14:50,0.144,0.134,0.209,0.205,0.209,0.116,0.074,north,3.1,Yes
2022/06/08,15:00,0.145,0.134,0.210,0.207,0.211,0.116,0.074,north,2.6,Yes
2022/06/08,15:10,0.145,0.135,0.210,0.205,0.210,0.116,0.074,north,3.0,Yes
2022/06/08,15:20,0.145,0.134,0.210,0.205,0.212,0.116,0.075,north,2.6,Yes
2022/06/08,15:30,0.144,0.135,0.210,0.206,0.210,0.115,0.074,north-northwest,3.0,No
2022/06/08,15:40,0.145,0.134,0.210,0.206,0.212,0.115,0.074,north-northwest,2.9,No
2022/06/08,15:50,0.145,0.134,0.210,0.205,0.209,0.116,0.074,north-northwest,3.2,No
2022/06/08,16:00,0.145,0.134,0.210,0.205,0.212,0.115,0.075,north-northwest,3.3,No
2022/06/08,16:10,0.145,0.135,0.212,0.208,0.210,0.116,0.074,north-northwest,3.1,No
2022/06/08,16:20,0.145,0.135,0.211,0.204,0.211,0.115,0.074,north-northwest,2.9,No
2022/06/08,16:30,0.145,0.134,0.210,0.206,0.210,0.116,0.074,north-northwest,2.9,No
2022/06/08,16:40,0.144,0.135,0.211,0.206,0.211,0.116,0.074,north-northwest,3.5,No
2022/06/08,16:50,0.144,0.135,0.210,0.205,0.210,0.116,0.074,north-northwest,3.3,No
2022/06/08,17:00,0.146,0.135,0.211,0.206,0.211,0.115,0.074,north-northwest,3.5,Yes
2022/06/08,17:10,0.145,0.135,0.210,0.206,0.210,0.116,0.074,north-northwest,3.0,No
2022/06/08,17:20,0.145,0.133,0.211,0.205,0.211,0.115,0.075,northwest,3.9,No
2022/06/08,17:30,0.145,0.135,0.210,0.206,0.211,0.115,0.074,northwest,3.6,No
2022/06/08,17:40,0.146,0.134,0.210,0.206,0.209,0.116,0.074,northwest,3.9,No
2022/06/08,17:50,0.145,0.134,0.211,0.206,0.211,0.116,0.075,north-northwest,4.1,No
2022/06/08,18:00,0.145,0.135,0.210,0.208,0.211,0.115,0.074,north-northwest,4.3,No
2022/06/08,18:10,0.146,0.135,0.211,0.206,0.211,0.116,0.073,north-northwest,4.1,No
2022/06/08,18:20,0.145,0.134,0.209,0.206,0.210,0.116,0.074,north-northwest,4.8,No
2022/06/08,18:30,0.146,0.134,0.210,0.206,0.211,0.116,0.074,northwest,4.8,Yes
2022/06/08,18:40,0.146,0.135,0.211,0.206,0.209,0.115,0.075,north-northwest,4.9,Yes
2022/06/08,18:50,0.146,0.135,0.210,0.207,0.210,0.115,0.075,north-northwest,4.8,Yes
2022/06/08,19:00,0.146,0.133,0.212,0.206,0.210,0.116,0.074,northwest,4.8,Yes
2022/06/08,19:10,0.145,0.135,0.210,0.207,0.210,0.116,0.074,northwest,4.7,No
2022/06/08,19:20,0.145,0.134,0.210,0.206,0.211,0.116,0.073,northwest,4.3,No
2022/06/08,19:30,0.145,0.135,0.211,0.206,0.211,0.116,0.075,northwest,4.4,No
2022/06/08,19:40,0.146,0.135,0.210,0.207,0.210,0.116,0.075,northwest,3.8,Yes
2022/06/08,19:50,0.146,0.135,0.212,0.206,0.210,0.115,0.074,northwest,3.9,Yes
2022/06/08,20:00,0.145,0.135,0.210,0.207,0.211,0.117,0.075,northwest,3.8,Yes
2022/06/08,20:10,0.146,0.135,0.210,0.206,0.209,0.116,0.074,north-northwest,3.4,Yes
2022/06/08,20:20,0.146,0.136,0.211,0.207,0.212,0.116,0.075,north-northwest,3.6,Yes
2022/06/08,20:30,0.147,0.136,0.211,0.206,0.211,0.117,0.075,north-northwest,4.0,Yes
2022/06/08,20:40,0.146,0.134,0.211,0.206,0.211,0.116,0.075,north-northwest,4.4,Yes
2022/06/08,20:50,0.147,0.135,0.210,0.206,0.212,0.116,0.074,north-northwest,4.6,Yes
2022/06/08,21:00,0.146,0.135,0.211,0.205,0.210,0.116,0.074,north-northwest,4.5,Yes
2022/06/08,21:10,0.146,0.135,0.213,0.206,0.211,0.116,0.075,north-northwest,4.8,Yes
2022/06/08,21:20,0.147,0.135,0.211,0.207,0.211,0.116,0.075,northwest,5.0,Yes
2022/06/08,21:30,0.146,0.136,0.211,0.207,0.212,0.116,0.075,north-northwest,5.1,Yes
2022/06/08,21:40,0.146,0.136,0.212,0.207,0.211,0.117,0.075,north-northwest,5.1,Yes
2022/06/08,21:50,0.147,0.136,0.212,0.207,0.213,0.117,0.076,north-northwest,5.3,Yes
2022/06/08,22:00,0.146,0.136,0.212,0.208,0.210,0.118,0.076,north-northwest,5.1,Yes
2022/06/08,22:10,0.147,0.136,0.211,0.208,0.211,0.117,0.076,north-northwest,4.9,Yes
2022/06/08,22:20,0.147,0.136,0.211,0.206,0.211,0.117,0.076,north-northwest,4.8,Yes
2022/06/08,22:30,0.147,0.136,0.212,0.208,0.211,0.117,0.076,north-northwest,4.7,Yes
2022/06/08,22:40,0.146,0.135,0.212,0.207,0.212,0.117,0.074,north-northwest,4.9,Yes
2022/06/08,22:50,0.146,0.135,0.211,0.206,0.209,0.116,0.075,north-northwest,5.5,Yes
2022/06/08,23:00,0.146,0.135,0.211,0.207,0.212,0.117,0.074,north-northwest,5.4,Yes
2022/06/08,23:10,0.146,0.136,0.211,0.206,0.210,0.117,0.075,north-northwest,5.5,Yes
2022/06/08,23:20,0.146,0.135,0.211,0.207,0.210,0.117,0.074,north-northwest,5.5,Yes
2022/06/08,23:30,0.145,0.135,0.210,0.206,0.211,0.116,0.074,north-northwest,5.3,Yes
2022/06/08,23:40,0.146,0.135,0.210,0.206,0.209,0.116,0.074,north-northwest,5.2,Yes
2022/06/08,23:50,0.146,0.135,0.211,0.206,0.211,0.116,0.075,north-northwest,4.1,Yes
